SCP
0 0 0 0 0 0 0 0 0 0 0 0 0 0 0 1 1 1 1 1 1 2 2 2 2 2 2 2 2 2 2 2 2 2 2 2 1 1 1 1 1 1 1 1
0 0 0 0 0 0 0 0 0 0 0 0 0 0 0 1 1 1 1 1 1 2 2 2 2 2 2 2 2 2 2 2 2 2 2 1 1 1 1 1 1 1 1 1
0 0 0 0 0 0 0 0 0 0 0 0 0 0 0 1 1 1 1 1 2 2 2 2 2 2 2 2 2 2 2 2 2 2 1 1 1 1 1 1 1 1 1 1
0 0 0 0 0 0 0 0 0 0 0 0 0 0 0 0 1 1 1 2 2 2 2 2 2 2 2 2 2 2 2 2 2 1 1 1 1 1 1 1 1 1 1 1
0 0 0 0 0 0 0 0 0 0 0 0 0 0 0 1 1 1 1 2 2 2 2 2 2 2 2 2 2 1 1 1 1 1 1 1 1 1 1 1 1 1 1 1
0 0 0 0 0 0 0 0 0 0 0 0 0 1 1 1 1 2 2 2 2 2 2 2 2 2 2 2 2 1 1 1 1 1 1 1 1 1 1 1 1 1 1 1
0 0 0 0 0 0 0 0 0 0 0 1 1 1 1 1 1 2 2 2 2 2 2 2 2 2 2 2 2 1 1 1 1 1 1 1 1 1 1 1 1 1 1 1
0 0 0 0 0 0 1 1 1 0 1 1 1 1 1 1 1 1 1 2 2 2 2 2 2 2 2 2 2 2 1 1 1 1 1 1 1 1 1 1 1 1 1 1
0 0 0 0 0 0 1 1 1 0 1 1 1 1 1 1 1 1 1 2 2 2 2 2 2 2 2 2 2 2 2 1 1 1 1 1 1 1 1 1 1 1 1 1
0 0 0 0 0 0 0 0 0 0 0 1 1 1 1 1 1 1 1 1 2 2 3 2 2 2 2 2 2 2 2 1 1 1 1 1 1 1 1 0 0 0 0 0
1 0 0 0 0 0 0 0 0 0 1 1 1 1 1 1 1 1 1 1 1 2 2 3 2 2 2 2 2 2 2 2 1 1 1 1 1 1 0 0 0 0 0 0
0 0 0 0 0 0 0 0 0 0 1 1 1 1 1 1 1 1 1 1 1 1 2 2 2 2 2 2 2 2 2 1 1 1 1 1 1 1 0 0 0 0 0 0
0 0 0 0 0 0 0 0 0 1 1 1 1 1 1 1 1 1 1 1 1 1 1 1 2 2 1 1 2 2 2 1 1 1 1 1 1 1 0 0 0 0 0 0
0 0 0 0 0 0 1 0 0 0 1 1 1 1 1 1 1 1 1 1 1 1 1 1 1 1 1 1 1 1 1 1 1 1 1 1 1 1 1 1 0 0 0 0
0 0 0 0 0 1 1 0 0 1 1 1 1 1 1 1 1 1 1 1 1 1 1 1 1 1 1 1 1 1 1 1 1 1 1 1 1 1 1 1 1 1 0 0
0 0 0 0 1 1 1 1 1 1 1 1 1 1 1 1 1 1 1 1 1 1 1 1 1 1 1 1 1 1 1 1 1 1 1 1 1 1 1 1 1 1 1 0
0 0 0 0 1 1 1 1 1 1 1 1 1 1 1 1 1 1 1 1 1 1 1 1 1 1 1 1 1 1 1 1 1 1 1 1 1 1 1 1 1 1 1 1
0 0 0 0 1 1 1 1 1 1 1 1 1 1 1 1 1 1 1 1 1 1 1 1 1 1 1 1 1 1 1 1 0 0 0 1 1 1 1 1 1 1 1 1
0 0 0 1 1 1 1 1 1 1 1 1 1 1 1 1 1 1 1 1 1 1 1 0 0 1 1 0 0 0 0 0 0 0 0 0 1 1 1 1 1 1 1 0
0 0 0 1 1 1 1 1 1 1 1 1 1 1 1 1 1 1 1 1 1 0 0 0 0 0 0 0 0 0 0 0 0 0 0 0 1 1 1 1 1 1 1 0
0 0 0 1 1 1 1 1 1 1 1 1 1 1 1 1 1 1 1 1 0 0 0 0 0 0 0 0 0 0 0 0 0 0 0 1 1 1 1 1 1 1 1 0
0 0 0 1 1 1 1 1 1 1 1 1 1 1 1 1 0 0 0 0 0 0 0 0 0 0 0 0 0 0 0 0 0 0 0 0 0 1 1 1 1 0 0 0
1 1 1 1 1 1 1 1 0 0 0 0 0 0 0 0 0 0 0 0 0 0 0 0 0 0 0 0 0 0 0 0 0 0 0 0 0 0 0 0 0 0 0 0
1 1 1 0 0 0 0 0 0 0 0 0 0 0 0 0 0 0 0 0 0 0 0 0 0 0 0 0 0 0 0 0 0 0 0 0 0 0 0 0 0 0 0 0
0 0 0 0 0 0 0 0 0 0 0 0 0 0 0 0 0 0 0 0 0 0 0 0 0 0 0 0 0 0 0 0 0 0 0 0 0 0 0 0 0 0 0 0
0 0 0 0 0 0 0 0 0 0 0 0 0 0 0 0 0 0 0 0 0 0 0 0 0 0 0 0 0 0 0 0 0 0 0 0 0 0 0 0 0 0 0 0
0 0 0 0 0 0 0 0 0 0 0 0 0 0 0 0 0 0 0 0 0 0 0 0 0 0 0 0 0 0 0 0 0 0 0 0 0 0 0 0 0 0 0 0
Wind_Speed
15 13 13 12 13 12 12 12 12 8 6 5 6 3 3 3 4 5 5 4 5 5 5 4 4 3 4 4 4 3 3 3 3 3 3 2 2 2 1 1 1 0 1 1
15 14 14 14 14 13 13 13 12 9 6 4 3 2 1 2 3 4 4 5 5 5 6 5 4 3 4 3 3 4 3 3 3 3 3 3 3 2 1 1 0 0 0 0
13 12 14 15 12 13 12 11 11 9 6 3 3 1 2 2 2 3 4 4 5 6 6 4 4 4 4 3 4 3 3 3 3 3 3 2 2 2 1 1 1 1 0 0
11 12 16 10 7 9 9 8 6 3 1 1 2 0 1 1 2 2 1 3 4 5 5 5 5 4 4 4 3 3 3 3 3 3 3 3 2 2 1 1 1 1 1 1
9 12 13 10 7 7 8 6 4 3 3 2 1 1 1 1 3 4 3 3 3 3 5 4 5 5 3 3 3 3 3 3 3 3 3 3 2 2 2 1 1 2 1 2
11 12 12 7 5 6 6 6 4 4 3 2 1 2 1 4 5 5 4 4 3 3 4 5 5 5 4 3 3 2 2 2 3 2 2 2 2 1 1 1 2 2 1 1
12 13 9 4 5 4 5 3 2 2 3 3 2 1 3 5 5 5 5 5 4 4 4 4 4 4 3 3 2 2 1 2 2 2 2 3 2 2 2 2 2 3 2 3
10 11 8 4 4 2 3 3 2 3 3 3 2 5 6 5 5 4 5 5 4 3 4 3 3 3 3 2 1 1 1 2 2 2 2 2 2 2 3 3 3 3 3 3
6 5 3 4 4 3 2 3 3 3 2 2 2 4 5 4 4 4 4 4 3 3 3 3 3 2 2 1 1 1 1 2 2 2 2 2 3 3 3 2 2 2 2 1
5 4 3 3 4 3 2 2 2 3 2 2 2 3 4 4 3 3 3 3 2 2 3 2 2 1 1 1 1 1 2 2 2 3 3 2 2 2 2 1 1 1 1 1
7 5 3 1 2 3 3 2 2 2 1 1 1 1 3 3 3 2 3 2 1 2 1 1 1 1 0 0 0 1 2 2 3 3 3 2 2 1 2 1 1 1 1 1
6 5 5 4 3 4 3 3 3 2 1 1 0 1 2 2 2 2 2 2 1 1 1 1 0 0 0 0 1 1 2 2 3 2 2 3 3 2 1 2 4 4 2 1
5 5 5 6 5 4 3 4 3 2 2 2 2 2 2 2 2 2 2 2 1 0 1 0 0 0 1 0 1 2 2 2 3 2 2 2 2 2 2 2 3 4 5 4
3 4 4 5 5 4 4 4 3 1 1 2 3 3 2 2 2 1 1 1 0 1 0 1 1 1 1 1 2 3 3 3 2 2 2 2 2 2 2 3 3 3 5 7
4 5 6 5 5 4 4 3 2 1 1 2 3 2 2 2 2 1 1 0 0 1 1 1 1 2 2 1 2 3 3 2 2 3 3 2 2 2 2 2 2 2 2 3
5 5 5 5 5 5 4 3 2 2 2 2 2 2 2 2 1 1 1 0 0 1 1 2 2 2 2 3 3 2 1 2 3 3 3 3 2 2 2 2 2 2 1 1
5 5 5 4 4 4 4 3 2 2 1 1 2 2 2 2 1 1 1 1 2 1 1 1 2 2 2 2 3 3 2 1 2 2 2 2 2 2 2 2 2 2 1 1
6 6 5 3 3 3 3 2 2 1 1 1 1 1 1 1 1 0 1 1 2 2 2 2 2 2 2 2 2 3 3 2 1 1 1 1 2 2 2 2 2 2 1 1
4 3 2 3 3 2 1 1 1 1 2 2 1 1 1 1 1 1 1 1 1 1 1 2 2 2 2 2 3 3 3 2 1 0 0 0 2 2 2 2 2 2 1 1
3 3 2 2 2 2 1 1 0 0 1 1 1 1 1 1 1 1 0 0 0 1 1 1 2 1 1 1 3 3 2 2 1 1 1 1 2 2 2 2 2 2 2 1
2 2 1 1 1 1 1 1 1 1 1 1 1 1 1 1 1 0 1 1 1 0 1 1 1 1 2 2 3 2 2 2 2 1 1 1 1 2 2 3 2 2 1 1
1 0 0 0 1 0 0 1 1 1 1 1 1 1 1 1 1 2 1 1 1 0 2 1 0 1 3 4 2 2 2 2 2 2 2 2 1 2 2 2 2 2 1 1
1 1 0 1 0 0 0 1 1 1 1 1 1 1 1 1 2 2 2 1 1 1 1 1 2 1 3 3 2 2 3 2 2 2 1 2 1 1 2 2 2 2 1 1
1 1 1 1 1 1 1 1 1 2 2 2 2 1 1 1 1 1 2 3 2 1 0 1 1 2 3 3 2 2 2 2 2 1 2 2 1 1 2 2 2 2 2 1
1 1 1 1 2 2 2 2 2 2 2 2 3 3 2 1 1 1 2 2 3 2 1 2 4 5 4 3 2 2 1 2 2 2 2 2 1 1 1 1 2 1 2 2
0 1 1 2 1 1 2 2 2 2 3 3 2 2 2 1 1 2 1 1 2 1 2 1 2 4 4 3 1 1 1 0 1 1 2 2 1 1 2 1 2 1 1 1
0 0 0 1 1 1 1 1 2 1 1 2 2 2 1 1 1 1 1 0 0 1 1 2 2 1 1 2 1 1 2 2 2 1 1 1 2 2 1 2 2 2 2 2
Wind_Direction
267 270 271 269 267 260 261 267 272 267 258 256 257 232 192 175 161 156 150 160 149 140 132 126 117 116 113 117 120 121 129 138 134 130 125 130 133 132 134 145 167 184 279 291
268 269 267 264 261 262 259 263 266 267 262 262 281 286 174 174 170 159 162 162 154 145 140 142 138 132 122 123 123 128 142 142 133 135 134 139 142 135 142 152 177 214 264 312
267 266 266 258 255 257 258 261 263 266 278 301 294 280 223 177 156 170 179 163 155 148 149 150 150 137 130 124 122 128 134 140 144 148 146 141 145 141 167 184 188 233 239 273
262 263 258 263 267 273 271 278 280 280 316 243 259 298 324 28 103 93 115 137 141 152 146 145 142 126 127 136 132 134 139 143 150 158 159 158 165 177 188 198 202 230 243 252
259 259 257 263 271 276 273 267 288 285 281 283 3 260 203 41 76 80 63 81 108 132 135 131 129 124 126 138 137 138 149 159 160 164 163 168 182 192 197 214 227 233 224 228
252 257 259 261 280 292 283 263 313 311 311 305 242 251 69 59 72 84 87 88 97 96 113 116 122 130 142 156 151 147 154 163 162 164 164 178 192 200 229 240 239 242 234 228
252 258 260 278 301 295 257 264 309 322 348 326 304 99 83 69 56 56 72 78 85 91 98 111 121 133 150 151 151 152 158 172 170 172 195 190 184 194 223 237 238 239 236 234
249 254 256 319 292 288 350 358 10 8 1 353 51 92 96 85 72 64 68 71 73 80 89 98 118 126 129 130 133 139 164 182 174 187 222 193 180 201 221 236 243 242 236 227
260 263 319 332 334 359 15 2 356 358 1 18 73 108 106 100 94 85 79 70 62 76 79 78 77 99 125 128 151 167 186 200 194 204 214 206 207 214 222 226 236 248 266 275
268 260 278 319 341 340 343 328 338 345 355 3 101 113 105 105 99 90 83 77 64 67 78 67 66 52 77 107 193 210 217 215 211 213 213 214 216 211 212 223 250 268 275 291
271 280 292 299 333 314 313 320 318 322 329 2 65 129 123 106 101 102 98 86 77 78 102 111 102 93 41 350 232 223 231 234 230 223 216 213 208 225 212 179 181 219 295 307
269 284 280 290 286 291 316 313 295 297 298 293 120 105 102 108 105 89 87 89 76 54 50 26 58 87 84 351 302 273 249 245 246 240 214 208 204 205 133 186 173 170 179 202
275 276 292 295 296 305 293 290 281 257 224 169 126 121 118 111 102 95 81 81 76 1 333 343 13 78 132 249 272 273 273 268 266 262 240 222 220 212 210 206 199 207 208 210
307 301 286 282 286 292 292 292 279 198 187 135 123 124 129 124 120 115 101 105 82 282 309 14 357 341 349 272 279 275 272 253 265 275 274 255 247 248 239 221 213 221 219 218
285 277 277 285 288 285 290 295 283 209 170 148 131 134 132 129 126 109 93 67 4 327 360 350 352 347 341 298 268 274 282 292 286 282 277 269 252 244 252 252 243 227 200 198
271 265 261 259 268 264 259 264 257 224 194 161 146 136 129 123 114 96 74 84 46 349 356 9 359 349 330 305 295 270 256 278 286 290 280 276 272 258 258 257 251 240 233 213
266 260 256 253 262 262 257 251 251 241 197 144 130 131 128 121 118 105 57 54 74 49 32 24 354 344 327 316 315 302 287 244 238 271 285 292 296 293 289 284 276 263 248 203
255 255 249 245 253 260 265 265 251 227 157 122 117 127 138 141 139 65 40 39 65 59 26 10 1 337 328 346 327 310 309 297 245 248 302 324 313 308 301 293 288 298 312 170
272 273 253 245 247 248 237 250 281 85 100 114 138 136 124 117 89 78 74 86 73 339 348 342 316 308 341 2 322 286 292 291 276 78 43 306 287 292 300 309 317 317 319 329
270 275 233 210 236 243 213 204 197 134 140 145 135 123 115 103 97 87 78 253 307 295 285 308 281 295 327 334 304 289 301 304 319 14 15 321 307 313 313 311 324 335 346 2
248 248 235 190 205 239 191 164 173 184 155 144 132 138 141 123 124 163 228 233 124 25 281 231 251 320 338 327 278 294 313 322 336 354 341 317 313 324 324 320 317 308 320 348
268 243 270 213 186 176 126 156 178 190 150 123 141 160 154 170 186 192 189 183 149 307 269 219 177 29 346 315 295 306 316 322 329 327 320 315 319 321 317 316 312 322 349 3
17 22 317 302 297 72 232 191 171 169 154 162 170 181 204 235 224 204 178 157 166 218 285 33 50 21 333 295 297 301 304 311 314 314 318 312 308 318 329 340 345 2 14 11
30 9 311 267 228 211 229 214 186 163 154 156 167 175 195 208 210 189 138 143 150 176 291 101 182 254 271 269 281 287 302 320 331 335 333 332 346 13 14 7 5 8 5 3
297 282 219 220 221 212 189 190 191 165 159 151 153 161 193 201 163 90 82 107 129 175 206 183 216 237 251 267 278 292 313 335 340 329 319 327 344 3 3 6 4 358 8 12
292 241 229 248 253 220 190 182 166 166 161 154 155 164 167 170 148 113 114 131 139 208 247 211 212 226 248 267 287 316 325 254 271 317 338 338 355 7 7 1 355 351 13 23
272 335 184 207 191 196 187 144 132 148 158 156 154 154 158 148 124 114 120 275 222 233 260 266 260 245 274 312 1 22 18 17 4 354 353 4 16 16 10 349 345 351 359 18